Regional Weather Roundup
Issued by NWS

Home | Current Version | Previous Version | Graphics & Text | Print | Product List | Glossary On
Versions: 1 2 3 4 5 6 7 8 9 10 11 12 13 14 15 16 17 18 19 20 21 22 23 24 25 26 27 28 29 30 31 32 33 34 35 36 37 38 39 40 41 42 43 44 45 46 47 48 49 50
000
ASUS45 KSLC 060310
RWRUT

UTAH REGIONAL WEATHER ROUNDUP
NATIONAL WEATHER SERVICE SALT LAKE CITY UT
800 PM MST THU MAR 05 2015

UTZ001>011-023>025-060400-

NORTHERN UTAH

CITY           SKY/WX    TMP DP  RH WIND       PRES   REMARKS
BRIGHAM CITY   CLEAR     36  24  61 E3        30.43S
HILL AFB       CLEAR     39  15  36 SE5       30.41S
LOGAN          CLEAR     36  20  52 SE7       30.42R WCI  30
OGDEN          CLEAR     38  22  52 CALM      30.41S
PROVO AIRPORT  NOT AVBL
SALT LAKE CITY PTCLDY    41  21  44 E5        30.41S
VERNAL         CLEAR     30  19  63 NW6       30.38R WCI  24
WENDOVER       CLEAR     43  23  45 CALM      30.40S
HEBER CITY     CLEAR     28  21  74 SE3       30.41R
WEST JORDAN    CLEAR     36  27  69 SW6       30.43R WCI  31

$$

UTZ012>022-026-027-060400-

SOUTHERN/CENTRAL UTAH

CITY           SKY/WX    TMP DP  RH WIND       PRES   REMARKS
BLANDING       CLEAR     30  25  82 NW5       30.45S WCI  25
BRYCE CANYON   PTCLDY    11   2  67 CALM      30.41R
CEDAR CITY     CLEAR     31  21  66 SE5       30.38R WCI  26
DELTA          CLEAR     40  21  46 E6        30.42S
HANKSVILLE     CLEAR     34  25  69 CALM      30.40R
MILFORD        CLEAR     35  23  61 N6        30.40R WCI  30
MOAB/CYNLANDS  CLEAR     33  17  51 W5        30.38R WCI  29
PRICE          CLEAR     31  22  69 NE6       30.38R WCI  25
ST GEORGE      CLEAR     52  27  37 CALM      30.36R
KANAB          CLEAR     37  28  70 N6        30.40R WCI  33

$$

REGIONAL REPORTS     COLORADO/ARIZONA

CITY           SKY/WX    TMP DP  RH WIND       PRES   REMARKS
CRAIG, CO      CLEAR     23  14  68 CALM      30.37S
GRAND JUNCTION CLEAR     29  22  75 CALM      30.40R
RIFLE          CLEAR     32  21  64 S3        30.40R
MONTROSE       PTCLDY    33  21  61 S7        30.42R WCI  27
CORTEZ         CLEAR     32  22  66 E6        30.39R WCI  26
PAGE, AZ       CLEAR     42  24  49 SE5       30.37R
GRAND CANYON   CLEAR     26  17  68 CALM      30.39R
KINGMAN        CLEAR     47  29  49 E8        30.31R
FLAGSTAFF      CLEAR     27  17  66 CALM      30.37S

$$

REGIONAL REPORTS    NEVADA/IDAHO/WYOMING

CITY           SKY/WX    TMP DP  RH WIND       PRES   REMARKS
LAS VEGAS, NV  CLEAR     60  23  24 S6        30.27R
ELY            CLEAR     36  19  50 NE3       30.40R
ELKO           CLEAR     39  14  36 CALM      30.38R
POCATELLO, ID  CLEAR     42  18  37 S10       30.35S
BURLEY         PTCLDY    36  15  42 SW9       30.34R WCI  29
EVANSTON, WY   PTCLDY    27  13  55 SW8       30.39R WCI  19
ROCK SPRINGS   MOCLDY    30  17  58 W18G24    30.31R WCI  18

$$



USA.gov is the U.S. government's official web portal to all federal, state and local government web resources and services.